Year,Month,Day,Hour,Minute,Value (Times are PST for temperature in C)
2015,05,21,00,00,18.10
2015,05,21,00,01,18.10
2015,05,21,00,02,18.00
2015,05,21,00,03,17.90
2015,05,21,00,04,17.80
2015,05,21,00,05,17.70
2015,05,21,00,06,17.70
2015,05,21,00,07,17.70
2015,05,21,00,08,17.70
2015,05,21,00,09,17.80
2015,05,21,00,10,17.70
2015,05,21,00,11,17.70
2015,05,21,00,12,17.60
2015,05,21,00,13,17.60
2015,05,21,00,14,17.60
2015,05,21,00,15,17.70
2015,05,21,00,16,17.70
2015,05,21,00,17,17.70
2015,05,21,00,18,17.80
2015,05,21,00,19,17.80
2015,05,21,00,20,17.80
2015,05,21,00,21,17.80
2015,05,21,00,22,17.80
2015,05,21,00,23,17.90
2015,05,21,00,24,17.90
2015,05,21,00,25,17.90
2015,05,21,00,26,17.90
2015,05,21,00,27,17.80
2015,05,21,00,28,17.80
2015,05,21,00,29,17.80
2015,05,21,00,30,17.70
2015,05,21,00,31,17.70
2015,05,21,00,32,17.60
2015,05,21,00,33,17.60
2015,05,21,00,34,17.50
2015,05,21,00,35,17.50
2015,05,21,00,36,17.40
2015,05,21,00,37,17.40
2015,05,21,00,38,17.40
2015,05,21,00,39,17.40
2015,05,21,00,40,17.40
2015,05,21,00,41,17.40
2015,05,21,00,42,17.50
2015,05,21,00,43,17.50
2015,05,21,00,44,17.60
2015,05,21,00,45,17.60
2015,05,21,00,46,17.60
2015,05,21,00,47,17.60
2015,05,21,00,48,17.60
2015,05,21,00,49,17.60
2015,05,21,00,50,17.60
2015,05,21,00,51,17.60
2015,05,21,00,52,17.50
2015,05,21,00,53,17.40
2015,05,21,00,54,17.40
2015,05,21,00,55,17.50
2015,05,21,00,56,17.50
2015,05,21,00,57,17.40
2015,05,21,00,58,17.40
2015,05,21,00,59,17.30
2015,05,21,01,00,17.30
2015,05,21,01,01,17.30
2015,05,21,01,02,17.20
2015,05,21,01,03,17.20
2015,05,21,01,04,17.20
2015,05,21,01,05,17.20
2015,05,21,01,06,17.20
2015,05,21,01,07,17.20
2015,05,21,01,08,17.30
2015,05,21,01,09,17.30
2015,05,21,01,11,17.50
2015,05,21,01,12,17.50
2015,05,21,01,13,17.60
2015,05,21,01,14,17.50
2015,05,21,01,15,17.50
2015,05,21,01,16,17.40
2015,05,21,01,17,17.40
2015,05,21,01,18,17.40
2015,05,21,01,19,17.40
2015,05,21,01,20,17.40
2015,05,21,01,21,17.30
2015,05,21,01,22,17.30
2015,05,21,01,23,17.40
2015,05,21,01,24,17.40
2015,05,21,01,25,17.40
2015,05,21,01,26,17.40
2015,05,21,01,27,17.40
2015,05,21,01,28,17.50
2015,05,21,01,29,17.40
2015,05,21,01,30,17.50
2015,05,21,01,31,17.50
2015,05,21,01,32,17.60
2015,05,21,01,33,17.60
2015,05,21,01,34,17.60
2015,05,21,01,35,17.50
2015,05,21,01,36,17.40
2015,05,21,01,37,17.50
2015,05,21,01,38,17.60
2015,05,21,01,40,17.60
2015,05,21,01,41,17.70
2015,05,21,01,42,17.70
2015,05,21,01,43,17.70
2015,05,21,01,44,17.70
2015,05,21,01,45,17.70
2015,05,21,01,46,17.70
2015,05,21,01,47,17.70
2015,05,21,01,48,17.70
2015,05,21,01,49,17.60
2015,05,21,01,50,17.60
2015,05,21,01,51,17.60
2015,05,21,01,52,17.60
2015,05,21,01,53,17.60
2015,05,21,01,54,17.60
2015,05,21,01,55,17.60
2015,05,21,01,56,17.40
2015,05,21,01,57,17.40
2015,05,21,01,58,17.40
2015,05,21,01,59,17.30
2015,05,21,02,00,17.30
2015,05,21,02,01,17.30
2015,05,21,02,02,17.30
2015,05,21,02,03,17.30
2015,05,21,02,04,17.30
2015,05,21,02,05,17.30
2015,05,21,02,06,17.30
2015,05,21,02,07,17.30
2015,05,21,02,08,17.30
2015,05,21,02,09,17.30
2015,05,21,02,10,17.20
2015,05,21,02,11,17.20
2015,05,21,02,12,17.20
2015,05,21,02,13,17.20
2015,05,21,02,14,17.20
2015,05,21,02,15,17.20
2015,05,21,02,16,17.20
2015,05,21,02,17,17.20
2015,05,21,02,18,17.20
2015,05,21,02,19,17.20
2015,05,21,02,20,17.20
2015,05,21,02,21,17.30
2015,05,21,02,22,17.30
2015,05,21,02,23,17.30
2015,05,21,02,24,17.20
2015,05,21,02,25,17.20
2015,05,21,02,26,17.20
2015,05,21,02,27,17.10
2015,05,21,02,28,17.10
2015,05,21,02,29,17.20
2015,05,21,02,30,17.30
2015,05,21,02,31,17.30
2015,05,21,02,32,17.30
2015,05,21,02,33,17.30
2015,05,21,02,34,17.30
2015,05,21,02,35,17.30
2015,05,21,02,36,17.30
2015,05,21,02,37,17.30
2015,05,21,02,38,17.30
2015,05,21,02,39,17.30
2015,05,21,02,40,17.30
2015,05,21,02,41,17.30
2015,05,21,02,42,17.30
2015,05,21,02,43,17.30
2015,05,21,02,44,17.30
2015,05,21,02,45,17.30
2015,05,21,02,46,17.30
2015,05,21,02,47,17.30
2015,05,21,02,48,17.30
2015,05,21,02,49,17.30
2015,05,21,02,50,17.30
2015,05,21,02,51,17.30
2015,05,21,02,52,17.30
2015,05,21,02,53,17.40
2015,05,21,02,54,17.40
2015,05,21,02,55,17.40
2015,05,21,02,56,17.30
2015,05,21,02,57,17.30
2015,05,21,02,58,17.30
2015,05,21,02,59,17.30
2015,05,21,03,00,17.30
2015,05,21,03,01,17.20
2015,05,21,03,02,17.20
2015,05,21,03,03,17.20
2015,05,21,03,04,17.20
2015,05,21,03,05,17.20
2015,05,21,03,06,17.30
2015,05,21,03,07,17.30
2015,05,21,03,08,17.30
2015,05,21,03,09,17.30
2015,05,21,03,10,17.30
2015,05,21,03,11,17.30
2015,05,21,03,12,17.30
2015,05,21,03,13,17.30
2015,05,21,03,14,17.30
2015,05,21,03,15,17.30
2015,05,21,03,16,17.20
2015,05,21,03,17,17.20
2015,05,21,03,18,17.20
2015,05,21,03,19,17.20
2015,05,21,03,20,17.20
2015,05,21,03,21,17.20
2015,05,21,03,22,17.20
2015,05,21,03,23,17.20
2015,05,21,03,24,17.20
2015,05,21,03,25,17.20
2015,05,21,03,26,17.20
2015,05,21,03,27,17.20
2015,05,21,03,28,17.20
2015,05,21,03,29,17.20
2015,05,21,03,30,17.20
2015,05,21,03,31,17.20
2015,05,21,03,32,17.20
2015,05,21,03,33,17.20
2015,05,21,03,34,17.20
2015,05,21,03,35,17.20
2015,05,21,03,36,17.20
2015,05,21,03,37,17.20
2015,05,21,03,38,17.10
2015,05,21,03,39,17.10
2015,05,21,03,40,17.10
2015,05,21,03,41,17.10
2015,05,21,03,42,16.90
2015,05,21,03,43,16.90
2015,05,21,03,44,16.80
2015,05,21,03,45,16.80
2015,05,21,03,46,16.80
2015,05,21,03,47,16.80
2015,05,21,03,48,16.80
2015,05,21,03,49,16.90
2015,05,21,03,50,16.90
2015,05,21,03,51,16.90
2015,05,21,03,52,17.00
2015,05,21,03,53,17.10
2015,05,21,03,54,17.10
2015,05,21,03,55,17.10
2015,05,21,03,56,17.00
2015,05,21,03,57,16.90
2015,05,21,03,58,16.90
2015,05,21,03,59,16.90
2015,05,21,04,00,16.80
2015,05,21,04,01,16.80
2015,05,21,04,02,16.70
2015,05,21,04,03,16.70
2015,05,21,04,04,16.60
2015,05,21,04,05,16.50
2015,05,21,04,06,16.40
2015,05,21,04,07,16.20
2015,05,21,04,08,16.10
2015,05,21,04,09,15.90
2015,05,21,04,10,15.90
2015,05,21,04,11,15.90
2015,05,21,04,12,15.90
2015,05,21,04,13,15.80
2015,05,21,04,14,15.70
2015,05,21,04,15,15.60
2015,05,21,04,16,15.30
2015,05,21,04,17,15.10
2015,05,21,04,18,14.90
2015,05,21,04,19,14.80
2015,05,21,04,20,14.60
2015,05,21,04,21,14.40
2015,05,21,04,22,14.30
2015,05,21,04,23,14.20
2015,05,21,04,24,14.10
2015,05,21,04,25,14.10
2015,05,21,04,26,14.00
2015,05,21,04,27,13.90
2015,05,21,04,28,13.90
2015,05,21,04,29,13.80
2015,05,21,04,30,13.80
2015,05,21,04,31,13.70
2015,05,21,04,32,13.60
2015,05,21,04,33,13.60
2015,05,21,04,34,13.40
2015,05,21,04,35,13.40
2015,05,21,04,36,13.30
2015,05,21,04,37,13.30
2015,05,21,04,38,13.20
2015,05,21,04,39,13.20
2015,05,21,04,40,13.10
2015,05,21,04,41,13.10
2015,05,21,04,42,13.00
2015,05,21,04,43,12.90
2015,05,21,04,44,12.80
2015,05,21,04,45,12.80
2015,05,21,04,46,12.70
2015,05,21,04,47,12.70
2015,05,21,04,48,12.60
2015,05,21,04,49,12.60
2015,05,21,04,50,12.50
2015,05,21,04,51,12.50
2015,05,21,04,52,12.40
2015,05,21,04,53,12.40
2015,05,21,04,54,12.40
2015,05,21,04,55,12.30
2015,05,21,04,56,12.30
2015,05,21,04,57,12.30
2015,05,21,04,58,12.30
2015,05,21,04,59,12.30
2015,05,21,05,00,12.20
2015,05,21,05,01,12.30
2015,05,21,05,02,12.30
2015,05,21,05,03,12.30
2015,05,21,05,04,12.30
2015,05,21,05,05,12.30
2015,05,21,05,06,12.30
2015,05,21,05,07,12.40
2015,05,21,05,08,12.40
2015,05,21,05,09,12.40
2015,05,21,05,10,12.40
2015,05,21,05,11,12.40
2015,05,21,05,12,12.40
2015,05,21,05,13,12.60
2015,05,21,05,14,12.70
2015,05,21,05,15,12.70
2015,05,21,05,16,12.80
2015,05,21,05,17,12.80
2015,05,21,05,18,12.80
2015,05,21,05,19,12.80
2015,05,21,05,20,12.80
2015,05,21,05,21,12.70
2015,05,21,05,22,12.70
2015,05,21,05,23,12.60
2015,05,21,05,24,12.60
2015,05,21,05,25,12.60
2015,05,21,05,26,12.50
2015,05,21,05,27,12.50
2015,05,21,05,28,12.40
2015,05,21,05,29,12.40
2015,05,21,05,30,12.40
2015,05,21,05,31,12.40
2015,05,21,05,32,12.30
2015,05,21,05,33,12.40
2015,05,21,05,34,12.50
2015,05,21,05,35,12.60
2015,05,21,05,36,12.60
2015,05,21,05,37,12.70
2015,05,21,05,38,12.70
2015,05,21,05,39,12.80
2015,05,21,05,40,12.80
2015,05,21,05,41,12.80
2015,05,21,05,42,12.80
2015,05,21,05,43,12.80
2015,05,21,05,44,12.90
2015,05,21,05,45,13.20
2015,05,21,05,46,13.30
2015,05,21,05,47,13.50
2015,05,21,05,48,13.60
2015,05,21,05,49,13.60
2015,05,21,05,50,13.50
2015,05,21,05,51,13.40
2015,05,21,05,52,13.40
2015,05,21,05,53,13.30
2015,05,21,05,54,13.30
2015,05,21,05,55,13.20
2015,05,21,05,56,13.10
2015,05,21,05,57,13.10
2015,05,21,05,58,12.90
2015,05,21,05,59,12.90
2015,05,21,06,00,12.80
2015,05,21,06,01,12.70
2015,05,21,06,02,12.60
2015,05,21,06,03,12.50
2015,05,21,06,04,12.40
2015,05,21,06,05,12.40
2015,05,21,06,06,12.30
2015,05,21,06,07,12.30
2015,05,21,06,08,12.20
2015,05,21,06,09,12.20
2015,05,21,06,10,12.20
2015,05,21,06,11,12.10
2015,05,21,06,12,12.00
2015,05,21,06,13,11.90
2015,05,21,06,14,11.90
2015,05,21,06,15,11.80
2015,05,21,06,16,11.80
2015,05,21,06,17,11.80
2015,05,21,06,18,11.80
2015,05,21,06,19,11.70
2015,05,21,06,20,11.70
2015,05,21,06,21,11.70
2015,05,21,06,22,11.70
2015,05,21,06,23,11.70
2015,05,21,06,24,11.70
2015,05,21,06,25,11.70
2015,05,21,06,26,11.70
2015,05,21,06,27,11.70
2015,05,21,06,28,11.70
2015,05,21,06,29,11.70
2015,05,21,06,30,11.70
2015,05,21,06,31,11.70
2015,05,21,06,32,11.70
2015,05,21,06,33,11.70
2015,05,21,06,34,11.70
2015,05,21,06,35,11.80
2015,05,21,06,36,11.80
2015,05,21,06,37,11.80
2015,05,21,06,38,11.80
2015,05,21,06,39,11.80
2015,05,21,06,40,11.80
2015,05,21,06,41,11.80
2015,05,21,06,42,11.80
2015,05,21,06,43,11.80
2015,05,21,06,44,11.70
2015,05,21,06,45,11.70
2015,05,21,06,46,11.70
2015,05,21,06,47,11.70
2015,05,21,06,48,11.70
2015,05,21,06,49,11.80
2015,05,21,06,50,11.80
2015,05,21,06,51,11.80
2015,05,21,06,52,11.90
2015,05,21,06,53,11.90
2015,05,21,06,54,11.90
2015,05,21,06,55,12.00
2015,05,21,06,56,12.10
2015,05,21,06,57,12.10
2015,05,21,06,58,12.20
2015,05,21,06,59,12.30
2015,05,21,07,00,12.30
2015,05,21,07,01,12.40
2015,05,21,07,02,12.50
2015,05,21,07,03,12.60
2015,05,21,07,04,12.70
2015,05,21,07,05,12.80
2015,05,21,07,06,12.80
2015,05,21,07,07,12.90
2015,05,21,07,08,13.10
2015,05,21,07,09,13.20
2015,05,21,07,10,13.30
2015,05,21,07,11,13.50
2015,05,21,07,12,13.60
2015,05,21,07,13,13.70
2015,05,21,07,14,13.80
2015,05,21,07,15,13.90
2015,05,21,07,16,13.90
2015,05,21,07,17,14.00
2015,05,21,07,18,14.00
2015,05,21,07,19,14.00
2015,05,21,07,20,14.10
2015,05,21,07,21,14.00
2015,05,21,07,22,14.10
2015,05,21,07,23,14.10
2015,05,21,07,24,14.10
2015,05,21,07,25,14.10
2015,05,21,07,26,14.10
2015,05,21,07,27,14.10
2015,05,21,07,28,14.10
2015,05,21,07,29,14.20
2015,05,21,07,30,14.30
2015,05,21,07,31,14.40
2015,05,21,07,32,14.60
2015,05,21,07,33,14.70
2015,05,21,07,34,14.80
2015,05,21,07,35,15.00
2015,05,21,07,36,15.20
2015,05,21,07,37,15.30
2015,05,21,07,38,15.40
2015,05,21,07,39,15.60
2015,05,21,07,40,15.70
2015,05,21,07,41,15.70
2015,05,21,07,42,15.60
2015,05,21,07,43,15.60
2015,05,21,07,44,15.60
2015,05,21,07,45,15.60
2015,05,21,07,46,15.50
2015,05,21,07,47,15.50
2015,05,21,07,48,15.60
2015,05,21,07,49,15.60
2015,05,21,07,50,15.60
2015,05,21,07,51,15.70
2015,05,21,07,52,15.80
2015,05,21,07,53,15.80
2015,05,21,07,54,15.90
2015,05,21,07,55,15.90
2015,05,21,07,56,16.10
2015,05,21,07,57,16.10
2015,05,21,07,58,16.20
2015,05,21,07,59,16.20
2015,05,21,08,00,16.20
2015,05,21,08,01,16.20
2015,05,21,08,02,16.30
2015,05,21,08,03,16.30
2015,05,21,08,04,16.40
2015,05,21,08,05,16.40
2015,05,21,08,06,16.40
2015,05,21,08,07,16.50
2015,05,21,08,08,16.60
2015,05,21,08,09,16.70
2015,05,21,08,10,16.70
2015,05,21,08,11,16.70
2015,05,21,08,12,16.70
2015,05,21,08,13,16.70
2015,05,21,08,14,16.70
2015,05,21,08,15,16.70
2015,05,21,08,16,16.80
2015,05,21,08,17,16.70
2015,05,21,08,18,16.70
2015,05,21,08,19,16.70
2015,05,21,08,20,16.70
2015,05,21,08,21,16.70
2015,05,21,08,22,16.70
2015,05,21,08,23,16.70
2015,05,21,08,24,16.80
2015,05,21,08,25,16.80
2015,05,21,08,26,16.90
2015,05,21,08,27,17.00
2015,05,21,08,28,17.10
2015,05,21,08,29,17.10
2015,05,21,08,30,17.20
2015,05,21,08,31,17.20
2015,05,21,08,32,17.20
2015,05,21,08,33,17.20
2015,05,21,08,34,17.20
2015,05,21,08,35,17.20
2015,05,21,08,36,17.20
2015,05,21,08,37,17.10
2015,05,21,08,38,17.10
2015,05,21,08,39,17.10
2015,05,21,08,40,17.10
2015,05,21,08,41,17.10
2015,05,21,08,42,17.10
2015,05,21,08,43,17.20
2015,05,21,08,44,17.30
2015,05,21,08,45,17.30
2015,05,21,08,46,17.40
2015,05,21,08,47,17.40
2015,05,21,08,48,17.40
2015,05,21,08,49,17.50
2015,05,21,08,50,17.50
2015,05,21,08,51,17.60
2015,05,21,08,52,17.50
2015,05,21,08,53,17.40
2015,05,21,08,54,17.40
2015,05,21,08,55,17.50
2015,05,21,08,56,17.60
2015,05,21,08,57,17.60
2015,05,21,08,58,17.60
2015,05,21,08,59,17.70
2015,05,21,09,00,17.80
2015,05,21,09,01,17.80
2015,05,21,09,02,17.90
2015,05,21,09,03,18.00
2015,05,21,09,04,18.00
2015,05,21,09,05,18.00
2015,05,21,09,06,17.90
2015,05,21,09,07,17.90
2015,05,21,09,08,17.80
2015,05,21,09,09,17.80
2015,05,21,09,10,17.70
2015,05,21,09,11,17.70
2015,05,21,09,12,17.70
2015,05,21,09,13,17.70
2015,05,21,09,14,17.70
2015,05,21,09,15,17.70
2015,05,21,09,16,17.70
2015,05,21,09,17,17.70
2015,05,21,09,18,17.80
2015,05,21,09,19,17.80
2015,05,21,09,20,17.80
2015,05,21,09,21,17.80
2015,05,21,09,22,17.80
2015,05,21,09,23,17.70
2015,05,21,09,24,17.70
2015,05,21,09,25,17.60
2015,05,21,09,26,17.60
2015,05,21,09,27,17.60
2015,05,21,09,28,17.60
2015,05,21,09,29,17.70
2015,05,21,09,30,17.80
2015,05,21,09,31,17.90
2015,05,21,09,32,17.90
2015,05,21,09,33,18.10
2015,05,21,09,34,18.20
2015,05,21,09,35,18.40
2015,05,21,09,36,18.60
2015,05,21,09,37,18.80
2015,05,21,09,38,18.90
2015,05,21,09,39,19.10
2015,05,21,09,40,19.30
2015,05,21,09,41,19.40
2015,05,21,09,42,19.50
2015,05,21,09,43,19.60
2015,05,21,09,44,19.70
2015,05,21,09,45,19.70
2015,05,21,09,46,19.80
2015,05,21,09,47,19.80
2015,05,21,09,48,19.80
2015,05,21,09,49,19.80
2015,05,21,09,50,19.90
2015,05,21,09,51,19.90
2015,05,21,09,52,19.90
2015,05,21,09,53,20.00
2015,05,21,09,54,20.10
2015,05,21,09,55,20.10
2015,05,21,09,56,20.10
2015,05,21,09,57,20.10
2015,05,21,09,58,20.10
2015,05,21,09,59,20.20
2015,05,21,10,00,20.20
2015,05,21,10,01,20.20
2015,05,21,10,02,20.30
2015,05,21,10,03,20.30
2015,05,21,10,04,20.30
2015,05,21,10,05,20.20
2015,05,21,10,06,20.20
2015,05,21,10,07,20.20
2015,05,21,10,08,20.20
2015,05,21,10,09,20.20
2015,05,21,10,10,20.30
2015,05,21,10,11,20.30
2015,05,21,10,12,20.30
2015,05,21,10,13,20.30
2015,05,21,10,14,20.40
2015,05,21,10,15,20.40
2015,05,21,10,16,20.50
2015,05,21,10,17,20.60
2015,05,21,10,18,20.60
2015,05,21,10,19,20.60
2015,05,21,10,20,20.50
2015,05,21,10,21,20.50
2015,05,21,10,22,20.50
2015,05,21,10,23,20.40
2015,05,21,10,24,20.40
2015,05,21,10,25,20.30
2015,05,21,10,26,20.30
2015,05,21,10,27,20.20
2015,05,21,10,28,20.20
2015,05,21,10,29,20.20
2015,05,21,10,30,20.20
2015,05,21,10,31,20.20
2015,05,21,10,32,20.20
2015,05,21,10,33,20.20
2015,05,21,10,34,20.20
2015,05,21,10,35,20.20
2015,05,21,10,36,20.10
2015,05,21,10,37,20.00
2015,05,21,10,38,19.90
2015,05,21,10,39,19.90
2015,05,21,10,40,19.90
2015,05,21,10,41,19.90
2015,05,21,10,42,19.80
2015,05,21,10,43,19.80
2015,05,21,10,44,19.80
2015,05,21,10,45,19.80
2015,05,21,10,46,19.70
2015,05,21,10,47,19.70
2015,05,21,10,48,19.80
2015,05,21,10,49,19.80
2015,05,21,10,50,19.90
2015,05,21,10,51,19.90
2015,05,21,10,52,20.00
2015,05,21,10,53,20.00
2015,05,21,10,54,20.00
2015,05,21,10,55,19.90
2015,05,21,10,56,19.80
2015,05,21,10,57,19.80
2015,05,21,10,58,19.80
2015,05,21,10,59,19.90
2015,05,21,11,00,20.00
2015,05,21,11,01,19.90
2015,05,21,11,02,19.90
2015,05,21,11,03,19.90
2015,05,21,11,04,19.90
2015,05,21,11,05,20.00
2015,05,21,11,06,20.00
2015,05,21,11,07,20.10
2015,05,21,11,08,20.10
2015,05,21,11,09,20.20
2015,05,21,11,10,20.20
2015,05,21,11,11,20.20
2015,05,21,11,13,20.30
2015,05,21,11,14,20.40
2015,05,21,11,15,20.40
2015,05,21,11,16,20.40
2015,05,21,11,17,20.40
2015,05,21,11,18,20.60
2015,05,21,11,19,20.60
2015,05,21,11,20,20.70
2015,05,21,11,21,20.80
2015,05,21,11,22,20.80
2015,05,21,11,23,20.80
2015,05,21,11,24,20.80
2015,05,21,11,25,20.80
2015,05,21,11,26,20.80
2015,05,21,11,27,20.80
2015,05,21,11,28,20.90
2015,05,21,11,29,20.90
2015,05,21,11,30,20.80
2015,05,21,11,31,20.80
2015,05,21,11,32,20.70
2015,05,21,11,33,20.70
2015,05,21,11,34,20.70
2015,05,21,11,35,20.80
2015,05,21,11,36,20.80
2015,05,21,11,37,20.90
2015,05,21,11,38,20.90
2015,05,21,11,39,21.00
2015,05,21,11,40,21.10
2015,05,21,11,41,21.10
2015,05,21,11,43,21.20
2015,05,21,11,44,21.20
2015,05,21,11,45,21.10
2015,05,21,11,46,21.10
2015,05,21,11,47,21.10
2015,05,21,11,48,20.90
2015,05,21,11,49,20.90
2015,05,21,11,50,20.90
2015,05,21,11,51,20.90
2015,05,21,11,52,21.00
2015,05,21,11,53,21.00
2015,05,21,11,54,21.00
2015,05,21,11,55,21.00
2015,05,21,11,56,20.90
2015,05,21,11,57,20.90
2015,05,21,11,58,20.80
2015,05,21,11,59,20.80
2015,05,21,12,00,20.80
2015,05,21,12,01,20.80
2015,05,21,12,02,20.80
2015,05,21,12,03,20.80
2015,05,21,12,04,20.80
2015,05,21,12,05,20.80
2015,05,21,12,06,20.80
2015,05,21,12,07,20.80
2015,05,21,12,09,20.90
2015,05,21,12,10,20.90
2015,05,21,12,11,20.90
2015,05,21,12,12,21.00
2015,05,21,12,13,21.00
2015,05,21,12,14,21.00
2015,05,21,12,15,21.00
2015,05,21,12,16,21.10
2015,05,21,12,17,21.10
2015,05,21,12,18,21.20
2015,05,21,12,19,21.20
2015,05,21,12,20,21.30
2015,05,21,12,21,21.30
2015,05,21,12,22,21.50
2015,05,21,12,23,21.70
2015,05,21,12,24,21.70
2015,05,21,12,25,21.80
2015,05,21,12,26,21.80
2015,05,21,12,27,21.80
2015,05,21,12,28,21.90
2015,05,21,12,29,21.90
2015,05,21,12,30,22.00
2015,05,21,12,31,21.90
2015,05,21,12,32,21.80
2015,05,21,12,33,21.80
2015,05,21,12,34,21.70
2015,05,21,12,35,21.80
2015,05,21,12,37,21.90
2015,05,21,12,38,22.10
2015,05,21,12,39,22.10
2015,05,21,12,40,22.10
2015,05,21,12,41,22.20
2015,05,21,12,42,22.20
2015,05,21,12,43,22.20
2015,05,21,12,44,22.30
2015,05,21,12,45,22.40
2015,05,21,12,46,22.40
2015,05,21,12,47,22.50
2015,05,21,12,48,22.50
2015,05,21,12,49,22.40
2015,05,21,12,50,22.30
2015,05,21,12,51,22.30
2015,05,21,12,52,22.20
2015,05,21,12,53,22.20
2015,05,21,12,54,22.10
2015,05,21,12,55,22.10
2015,05,21,12,56,22.20
2015,05,21,12,57,22.20
2015,05,21,12,58,22.30
2015,05,21,12,59,22.40
2015,05,21,13,00,22.50
2015,05,21,13,01,22.40
2015,05,21,13,02,22.20
2015,05,21,13,03,22.10
2015,05,21,13,04,21.80
2015,05,21,13,05,21.70
2015,05,21,13,06,21.60
2015,05,21,13,07,21.50
2015,05,21,13,08,21.60
2015,05,21,13,09,21.70
2015,05,21,13,10,21.70
2015,05,21,13,11,21.70
2015,05,21,13,12,21.70
2015,05,21,13,13,21.70
2015,05,21,13,14,21.70
2015,05,21,13,15,21.80
2015,05,21,13,16,21.80
2015,05,21,13,17,21.80
2015,05,21,13,18,21.80
2015,05,21,13,19,21.80
2015,05,21,13,20,21.70
2015,05,21,13,21,21.70
2015,05,21,13,22,21.70
2015,05,21,13,23,21.70
2015,05,21,13,24,21.70
2015,05,21,13,25,21.70
2015,05,21,13,26,21.80
2015,05,21,13,27,21.90
2015,05,21,13,28,21.90
2015,05,21,13,29,21.90
2015,05,21,13,30,21.80
2015,05,21,13,31,21.70
2015,05,21,13,32,21.60
2015,05,21,13,33,21.60
2015,05,21,13,34,21.60
2015,05,21,13,35,21.60
2015,05,21,13,36,21.60
2015,05,21,13,37,21.60
2015,05,21,13,38,21.70
2015,05,21,13,39,21.60
2015,05,21,13,40,21.60
2015,05,21,13,41,21.60
2015,05,21,13,42,21.60
2015,05,21,13,43,21.60
2015,05,21,13,44,21.60
2015,05,21,13,45,21.60
2015,05,21,13,46,21.60
2015,05,21,13,47,21.60
2015,05,21,13,48,21.60
2015,05,21,13,49,21.60
2015,05,21,13,50,21.60
2015,05,21,13,51,21.60
2015,05,21,13,52,21.60
2015,05,21,13,53,21.70
2015,05,21,13,54,21.70
2015,05,21,13,55,21.80
2015,05,21,13,56,21.80
2015,05,21,13,57,21.90
2015,05,21,13,58,22.00
2015,05,21,13,59,22.10
2015,05,21,14,00,22.20
2015,05,21,14,01,22.20
2015,05,21,14,02,22.20
2015,05,21,14,03,22.30
2015,05,21,14,04,22.30
2015,05,21,14,05,22.20
2015,05,21,14,06,22.20
2015,05,21,14,07,22.20
2015,05,21,14,08,22.20
2015,05,21,14,09,22.10
2015,05,21,14,11,22.00
2015,05,21,14,12,21.90
2015,05,21,14,13,21.80
2015,05,21,14,14,21.80
2015,05,21,14,16,21.80
2015,05,21,14,17,21.80
2015,05,21,14,18,21.90
2015,05,21,14,19,22.00
2015,05,21,14,20,22.10
2015,05,21,14,21,22.10
2015,05,21,14,22,22.20
2015,05,21,14,23,22.20
2015,05,21,14,24,22.10
2015,05,21,14,25,21.90
2015,05,21,14,26,21.90
2015,05,21,14,27,21.80
2015,05,21,14,28,21.80
2015,05,21,14,29,21.80
2015,05,21,14,30,21.80
2015,05,21,14,31,21.70
2015,05,21,14,32,21.70
2015,05,21,14,33,21.70
2015,05,21,14,34,21.70
2015,05,21,14,35,21.70
2015,05,21,14,36,21.70
2015,05,21,14,37,21.70
2015,05,21,14,38,21.70
2015,05,21,14,39,21.80
2015,05,21,14,40,21.80
2015,05,21,14,41,21.90
2015,05,21,14,42,22.10
2015,05,21,14,43,22.20
2015,05,21,14,44,22.30
2015,05,21,14,45,22.40
2015,05,21,14,46,22.50
2015,05,21,14,47,22.60
2015,05,21,14,48,22.70
2015,05,21,14,49,22.70
2015,05,21,14,50,22.80
2015,05,21,14,51,22.80
2015,05,21,14,52,22.90
2015,05,21,14,53,22.90
2015,05,21,14,54,23.10
2015,05,21,14,55,23.10
2015,05,21,14,56,23.10
2015,05,21,14,57,23.10
2015,05,21,14,58,22.90
2015,05,21,14,59,22.90
2015,05,21,15,00,22.90
2015,05,21,15,01,22.90
2015,05,21,15,02,22.90
2015,05,21,15,03,22.90
2015,05,21,15,04,22.90
2015,05,21,15,05,22.80
2015,05,21,15,06,22.80
2015,05,21,15,07,22.80
2015,05,21,15,08,22.80
2015,05,21,15,09,22.70
2015,05,21,15,10,22.70
2015,05,21,15,11,22.70
2015,05,21,15,12,22.70
2015,05,21,15,13,22.80
2015,05,21,15,14,22.80
2015,05,21,15,15,22.90
2015,05,21,15,16,23.00
2015,05,21,15,17,23.10
2015,05,21,15,18,23.20
2015,05,21,15,19,23.40
2015,05,21,15,20,23.60
2015,05,21,15,21,23.70
2015,05,21,15,22,23.80
2015,05,21,15,23,23.90
2015,05,21,15,24,23.90
2015,05,21,15,25,23.90
2015,05,21,15,26,23.90
2015,05,21,15,27,23.90
2015,05,21,15,28,23.90
2015,05,21,15,29,24.00
2015,05,21,15,30,24.00
2015,05,21,15,31,23.90
2015,05,21,15,32,23.90
2015,05,21,15,33,23.90
2015,05,21,15,34,23.90
2015,05,21,15,35,23.90
2015,05,21,15,36,23.90
2015,05,21,15,37,24.00
2015,05,21,15,38,24.00
2015,05,21,15,39,23.90
2015,05,21,15,40,23.90
2015,05,21,15,41,23.90
2015,05,21,15,42,23.80
2015,05,21,15,43,23.70
2015,05,21,15,44,23.60
2015,05,21,15,45,23.40
2015,05,21,15,46,23.20
2015,05,21,15,47,23.10
2015,05,21,15,48,23.00
2015,05,21,15,49,22.90
2015,05,21,15,50,22.90
2015,05,21,15,51,22.90
2015,05,21,15,52,22.90
2015,05,21,15,53,22.80
2015,05,21,15,54,22.70
2015,05,21,15,55,22.60
2015,05,21,15,56,22.40
2015,05,21,15,57,22.20
2015,05,21,15,58,22.00
2015,05,21,15,59,21.80
2015,05,21,16,00,21.70
2015,05,21,16,01,21.60
2015,05,21,16,02,21.40
2015,05,21,16,03,21.30
2015,05,21,16,04,21.20
2015,05,21,16,05,21.20
2015,05,21,16,06,21.10
2015,05,21,16,07,21.10
2015,05,21,16,08,21.10
2015,05,21,16,09,21.20
2015,05,21,16,10,21.30
2015,05,21,16,11,21.50
2015,05,21,16,12,21.60
2015,05,21,16,13,21.80
2015,05,21,16,14,22.00
2015,05,21,16,15,22.20
2015,05,21,16,16,22.30
2015,05,21,16,17,22.40
2015,05,21,16,18,22.60
2015,05,21,16,19,22.70
2015,05,21,16,20,22.70
2015,05,21,16,21,22.80
2015,05,21,16,22,22.80
2015,05,21,16,23,22.90
2015,05,21,16,24,23.00
2015,05,21,16,25,23.00
2015,05,21,16,26,22.90
2015,05,21,16,27,22.90
2015,05,21,16,28,22.90
2015,05,21,16,29,22.90
2015,05,21,16,30,23.00
2015,05,21,16,31,23.10
2015,05,21,16,32,23.10
2015,05,21,16,33,23.20
2015,05,21,16,34,23.20
2015,05,21,16,35,23.30
2015,05,21,16,36,23.30
2015,05,21,16,37,23.30
2015,05,21,16,38,23.30
2015,05,21,16,39,23.30
2015,05,21,16,40,23.20
2015,05,21,16,41,23.10
2015,05,21,16,42,23.10
2015,05,21,16,43,23.00
2015,05,21,16,44,23.00
2015,05,21,16,45,23.10
2015,05,21,16,46,23.10
2015,05,21,16,47,23.20
2015,05,21,16,48,23.20
2015,05,21,16,49,23.10
2015,05,21,16,50,23.00
2015,05,21,16,51,22.90
2015,05,21,16,52,22.70
2015,05,21,16,53,22.70
2015,05,21,16,54,22.60
2015,05,21,16,55,22.60
2015,05,21,16,56,22.60
2015,05,21,16,57,22.60
2015,05,21,16,58,22.60
2015,05,21,16,59,22.60
2015,05,21,17,00,22.60
2015,05,21,17,01,22.70
2015,05,21,17,02,22.70
2015,05,21,17,03,22.80
2015,05,21,17,04,22.90
2015,05,21,17,05,23.00
2015,05,21,17,06,23.10
2015,05,21,17,07,23.20
2015,05,21,17,08,23.20
2015,05,21,17,09,23.30
2015,05,21,17,10,23.30
2015,05,21,17,11,23.30
2015,05,21,17,12,23.30
2015,05,21,17,13,23.30
2015,05,21,17,14,23.20
2015,05,21,17,15,23.20
2015,05,21,17,16,23.10
2015,05,21,17,17,23.10
2015,05,21,17,18,22.90
2015,05,21,17,19,22.90
2015,05,21,17,20,22.80
2015,05,21,17,21,22.80
2015,05,21,17,22,22.80
2015,05,21,17,23,22.70
2015,05,21,17,24,22.60
2015,05,21,17,25,22.50
2015,05,21,17,26,22.40
2015,05,21,17,27,22.30